Location: G�ndlingen
(48.0142°N, 7.6396°E)
Time: 01:37:25
(UTC+00:00)

Cosmos 2056 Rocket - Pass Details

Date: 05 July 2020
Orbit: 741 x 801 km, 74.0° (Epoch: 04 August)

Event Time Altitude Azimuth Distance (km) Brightness Sun altitude
Rises 22:58:08 0° 333° (NNW) 3,305 8.2 -18.9°
Reaches altitude 10° 23:00:34 10° 329° (NNW) 2,377 7.1 -18.9°
Maximum altitude 23:05:50 53° 254° (WSW) 977 3.9 -19.0°
Enters shadow 23:07:56 34° 196° (SSW) 1,309 4.2 -19.1°
